Location: Cercedilla
(40.7379°N, 4.0638°W)
Time: 05:15:05
(UTC+00:00)

Cosmos 2082 - Pass Details

Date: 07 June 2020
Orbit: 835 x 854 km, 71.0° (Epoch: 14 July)

Event Time Altitude Azimuth Distance (km) Brightness Sun altitude
Rises 01:22:38 0° 329° (NNW) 3,402 7.4 -24.6°
Reaches altitude 10° 01:25:11 10° 323° (NW) 2,460 6.5 -24.4°
Enters shadow 01:30:20 42° 257° (WSW) 1,183 4.2 -24.1°
